• în România
  • Lista ţărilor
  • Pe 7 zile
  • Temperatura apei
  • Hartă satelitară
  • Meteo pe hartă
  • Widget-uri
  • user-avatar
    Intrare

    Meteo pe oră la Dundee

    Astăzi, 22 Aprilie, Duminică

    Timp Temperatura Precipitaţii Vânt Presiune Umiditate
    00:00 +8°C° 0 mm 3 m/s 745 mmHg 96%
    01:00 +8°C° 0,1 mm 3 m/s 745 mmHg 96%
    02:00 +8°C° 0,1 mm 2 m/s 744 mmHg 97%
    03:00 +8°C° 0,1 mm 2 m/s 743 mmHg 97%
    04:00 +8°C° 0 mm 2 m/s 743 mmHg 96%
    05:00 +9°C° 0 mm 2 m/s 743 mmHg 96%
    06:00 +9°C° 0 mm 2 m/s 742 mmHg 95%
    07:00 +10°C° 0 mm 3 m/s 742 mmHg 86%
    08:00 +11°C° 0 mm 4 m/s 741 mmHg 78%
    09:00 +12°C° 0 mm 5 m/s 741 mmHg 69%
    10:00 +10°C° 0,4 mm 5 m/s 741 mmHg 73%
    11:00 +9°C° 0,4 mm 5 m/s 741 mmHg 78%
    12:00 +9°C° 0,4 mm 5 m/s 741 mmHg 82%
    13:00 +10°C° 0,1 mm 6 m/s 741 mmHg 78%
    14:00 +10°C° 0,1 mm 6 m/s 741 mmHg 74%
    15:00 +11°C° 0,1 mm 6 m/s 741 mmHg 70%
    16:00 +10°C° 0 mm 6 m/s 741 mmHg 72%
    17:00 +10°C° 0 mm 5 m/s 741 mmHg 73%
    18:00 +9°C° 0 mm 5 m/s 741 mmHg 75%
    19:00 +9°C° 0 mm 5 m/s 741 mmHg 79%
    20:00 +8°C° 0 mm 5 m/s 741 mmHg 83%
    21:00 +7°C° 0 mm 5 m/s 741 mmHg 87%
    22:00 +7°C° 0 mm 6 m/s 741 mmHg 88%
    23:00 +7°C° 0 mm 6 m/s 741 mmHg 88%

    Mâine, 23 Aprilie, Luni

    Timp Temperatura Precipitaţii Vânt Presiune Umiditate
    00:00 +7°C° 0 mm 6 m/s 741 mmHg 88%
    01:00 +7°C° 0,1 mm 6 m/s 741 mmHg 88%
    02:00 +6°C° 0,1 mm 7 m/s 741 mmHg 87%
    03:00 +6°C° 0,1 mm 7 m/s 741 mmHg 86%
    04:00 +6°C° 0 mm 7 m/s 741 mmHg 85%
    05:00 +6°C° 0 mm 7 m/s 742 mmHg 84%
    06:00 +6°C° 0 mm 8 m/s 743 mmHg 83%
    07:00 +7°C° 0 mm 8 m/s 743 mmHg 79%
    08:00 +9°C° 0 mm 8 m/s 744 mmHg 74%
    09:00 +9°C° 0 mm 8 m/s 744 mmHg 70%
    10:00 +10°C° 0 mm 7 m/s 744 mmHg 68%
    11:00 +10°C° 0 mm 7 m/s 745 mmHg 67%
    12:00 +11°C° 0 mm 7 m/s 745 mmHg 65%
    13:00 +10°C° 0,1 mm 7 m/s 745 mmHg 69%
    14:00 +10°C° 0,1 mm 7 m/s 744 mmHg 73%
    15:00 +9°C° 0,1 mm 6 m/s 744 mmHg 77%
    16:00 +9°C° 0,1 mm 7 m/s 744 mmHg 77%
    17:00 +9°C° 0,1 mm 8 m/s 744 mmHg 77%
    18:00 +7°C° 0,1 mm 9 m/s 744 mmHg 77%
    19:00 +6°C° 0 mm 8 m/s 744 mmHg 78%
    20:00 +6°C° 0 mm 7 m/s 744 mmHg 78%
    21:00 +5°C° 0 mm 6 m/s 744 mmHg 79%
    22:00 +5°C° 0 mm 6 m/s 744 mmHg 80%
    23:00 +5°C° 0 mm 6 m/s 744 mmHg 82%

    Poimâine, 24 Aprilie, Marţi

    Timp Temperatura Precipitaţii Vânt Presiune Umiditate
    00:00 +6°C° 0 mm 5 m/s 744 mmHg 83%
    01:00 +6°C° 0 mm 5 m/s 744 mmHg 84%
    02:00 +5°C° 0 mm 5 m/s 744 mmHg 84%
    03:00 +5°C° 0 mm 5 m/s 744 mmHg 84%
    04:00 +5°C° 0 mm 5 m/s 744 mmHg 84%
    05:00 +3°C° 0 mm 5 m/s 744 mmHg 85%
    06:00 +3°C° 0 mm 5 m/s 745 mmHg 85%
    07:00 +5°C° 0 mm 6 m/s 745 mmHg 78%
    08:00 +7°C° 0 mm 6 m/s 745 mmHg 71%
    09:00 +9°C° 0 mm 7 m/s 745 mmHg 64%
    10:00 +9°C° 0,1 mm 7 m/s 745 mmHg 62%
    11:00 +10°C° 0,1 mm 7 m/s 745 mmHg 60%
    12:00 +10°C° 0,1 mm 8 m/s 745 mmHg 58%
    13:00 +10°C° 0,1 mm 7 m/s 745 mmHg 57%
    14:00 +10°C° 0,1 mm 7 m/s 745 mmHg 57%
    15:00 +10°C° 0,1 mm 7 m/s 745 mmHg 56%
    16:00 +10°C° 0 mm 6 m/s 745 mmHg 59%
    17:00 +9°C° 0 mm 6 m/s 745 mmHg 61%
    18:00 +9°C° 0 mm 5 m/s 745 mmHg 64%
    19:00 +7°C° 0 mm 4 m/s 745 mmHg 70%
    20:00 +6°C° 0 mm 4 m/s 745 mmHg 76%
    21:00 +4°C° 0 mm 3 m/s 746 mmHg 81%
    22:00 +4°C° 0 mm 3 m/s 745 mmHg 84%
    23:00 +3°C° 0 mm 3 m/s 745 mmHg 87%

    25 Aprilie, Miercuri

    Timp Temperatura Precipitaţii Vânt Presiune Umiditate
    00:00 +3°C° 0 mm 3 m/s 745 mmHg 89%
    01:00 +3°C° 0 mm 3 m/s 745 mmHg 90%
    02:00 +2°C° 0 mm 3 m/s 744 mmHg 91%
    03:00 +2°C° 0 mm 3 m/s 744 mmHg 93%
    04:00 +2°C° 0 mm 3 m/s 744 mmHg 92%
    05:00 +3°C° 0 mm 3 m/s 744 mmHg 91%
    06:00 +3°C° 0 mm 3 m/s 743 mmHg 91%
    07:00 +5°C° 0 mm 4 m/s 743 mmHg 84%
    08:00 +6°C° 0 mm 5 m/s 743 mmHg 78%
    09:00 +8°C° 0 mm 5 m/s 743 mmHg 72%
    10:00 +8°C° 0,2 mm 6 m/s 743 mmHg 70%
    11:00 +9°C° 0,2 mm 6 m/s 742 mmHg 69%
    12:00 +9°C° 0,2 mm 7 m/s 742 mmHg 67%
    13:00 +9°C° 0,2 mm 7 m/s 742 mmHg 64%
    14:00 +9°C° 0,2 mm 7 m/s 742 mmHg 61%
    15:00 +10°C° 0,2 mm 7 m/s 741 mmHg 59%
    16:00 +9°C° 0,1 mm 7 m/s 741 mmHg 62%
    17:00 +8°C° 0,1 mm 7 m/s 741 mmHg 65%
    18:00 +8°C° 0,1 mm 6 m/s 741 mmHg 69%
    19:00 +5°C° 0 mm 6 m/s 741 mmHg 74%
    20:00 +4°C° 0 mm 6 m/s 741 mmHg 79%
    21:00 +3°C° 0 mm 5 m/s 742 mmHg 85%
    22:00 +3°C° 0 mm 5 m/s 742 mmHg 86%
    23:00 +2°C° 0 mm 6 m/s 742 mmHg 87%

    26 Aprilie, Joi

    Timp Temperatura Precipitaţii Vânt Presiune Umiditate
    00:00 +2°C° 0 mm 6 m/s 742 mmHg 88%
    01:00 +2°C° 0 mm 6 m/s 742 mmHg 88%
    02:00 +2°C° 0 mm 6 m/s 741 mmHg 87%
    03:00 +2°C° 0 mm 6 m/s 741 mmHg 86%
    04:00 +3°C° 0 mm 7 m/s 741 mmHg 85%
    05:00 +3°C° 0 mm 7 m/s 741 mmHg 84%
    06:00 +3°C° 0 mm 7 m/s 742 mmHg 83%
    07:00 +5°C° 0 mm 7 m/s 742 mmHg 76%
    08:00 +6°C° 0 mm 7 m/s 742 mmHg 69%
    09:00 +7°C° 0 mm 8 m/s 743 mmHg 62%
    10:00 +9°C° 0,2 mm 8 m/s 743 mmHg 60%
    11:00 +9°C° 0,2 mm 8 m/s 743 mmHg 58%
    12:00 +10°C° 0,2 mm 8 m/s 743 mmHg 56%
    13:00 +10°C° 0,3 mm 8 m/s 743 mmHg 56%
    14:00 +10°C° 0,3 mm 7 m/s 743 mmHg 55%
    15:00 +10°C° 0,3 mm 7 m/s 744 mmHg 55%
    16:00 +10°C° 0,2 mm 7 m/s 744 mmHg 59%
    17:00 +9°C° 0,2 mm 7 m/s 744 mmHg 64%
    18:00 +8°C° 0,2 mm 6 m/s 745 mmHg 68%
    19:00 +7°C° 0,1 mm 6 m/s 745 mmHg 74%
    20:00 +6°C° 0,1 mm 5 m/s 746 mmHg 79%
    21:00 +5°C° 0,1 mm 5 m/s 746 mmHg 85%
    22:00 +3°C° 0 mm 5 m/s 747 mmHg 87%
    23:00 +4°C° 0 mm 4 m/s 747 mmHg 90%

    27 Aprilie, Vineri

    Timp Temperatura Precipitaţii Vânt Presiune Umiditate
    00:00 +3°C° 0 mm 4 m/s 747 mmHg 93%
    01:00 +3°C° 0 mm 3 m/s 747 mmHg 94%
    02:00 +3°C° 0 mm 3 m/s 747 mmHg 94%
    03:00 +3°C° 0 mm 3 m/s 747 mmHg 94%
    04:00 +3°C° 0 mm 3 m/s 747 mmHg 93%
    05:00 +4°C° 0 mm 2 m/s 748 mmHg 92%
    06:00 +5°C° 0 mm 2 m/s 748 mmHg 91%
    07:00 +6°C° 0,1 mm 2 m/s 748 mmHg 85%
    08:00 +7°C° 0,1 mm 2 m/s 748 mmHg 79%
    09:00 +8°C° 0,1 mm 2 m/s 748 mmHg 73%
    10:00 +9°C° 0,3 mm 2 m/s 749 mmHg 70%
    11:00 +10°C° 0,3 mm 3 m/s 749 mmHg 67%
    12:00 +10°C° 0,3 mm 3 m/s 749 mmHg 65%
    13:00 +10°C° 0,4 mm 4 m/s 748 mmHg 63%
    14:00 +10°C° 0,4 mm 4 m/s 748 mmHg 62%
    15:00 +10°C° 0,4 mm 5 m/s 748 mmHg 61%
    16:00 +9°C° 0,1 mm 5 m/s 748 mmHg 62%
    17:00 +8°C° 0,1 mm 4 m/s 748 mmHg 64%
    18:00 +8°C° 0,1 mm 4 m/s 748 mmHg 65%
    19:00 +6°C° 0 mm 4 m/s 748 mmHg 70%
    20:00 +5°C° 0 mm 4 m/s 748 mmHg 75%
    21:00 +3°C° 0 mm 3 m/s 748 mmHg 80%
    22:00 +3°C° 0 mm 3 m/s 747 mmHg 82%
    23:00 +3°C° 0 mm 3 m/s 747 mmHg 85%
    Arată mai mult